GW4718 Weather Reports


time (UTC)temp
F
wind
direction
speed
knots
gust
knots
rain 1hr
in
rain 24hr
in
rain mn
in
humidity
%
barometer
mb
20260903121757 70 189 0.0 0.0 0.00 0.00 0.00 96 1023.3
20260903121253 70 168 0.9 0.9 0.00 0.00 0.00 96 1023.4
20260903120749 69 238 0.0 1.7 0.00 0.00 0.00 97 1023.2
20260903120247 70 159 0.9 1.7 0.00 0.00 0.00 96 1023.0
20260903115747 69 106 0.0 0.0 0.00 0.00 0.00 96 1023.2
20260903115242 70 261 0.9 1.7 0.00 0.00 0.00 96 1023.2
20260903114741 69 105 0.9 0.9 0.00 0.00 0.00 97 1023.3
20260903114238 69 140 0.9 0.9 0.00 0.00 0.00 97 1023.3
20260903113732 69 109 0.0 1.7 0.00 0.00 0.00 96 1023.1
20260903113229 70 91 1.7 5.2 0.00 0.00 0.00 94 1023.1
20260903112724 69 118 0.0 1.7 0.00 0.00 0.00 96 1023.0
20260903112220 69 107 1.7 1.7 0.00 0.00 0.00 97 1022.9
20260903111719 69 351 0.0 1.7 0.00 0.00 0.00 97 1022.9
20260903111214 69 210 1.7 2.6 0.00 0.00 0.00 96 1022.8
20260903110710 69 235 0.9 2.6 0.00 0.00 0.00 97 1022.7
20260903110206 69 121 0.9 1.7 0.00 0.00 0.00 97 1022.6
20260903105705 69 245 1.7 2.6 0.00 0.00 0.00 96 1022.6
20260903105200 69 111 0.9 0.9 0.00 0.00 0.00 97 1022.6
20260903104700 69 343 0.0 0.0 0.00 0.00 0.00 96 1022.3
20260903104155 69 65 2.6 3.5 0.00 0.00 0.00 96 1022.5
20260903103651 69 280 0.0 0.9 0.00 0.00 0.00 95 1022.5
20260903103147 69 56 2.6 5.2 0.00 0.00 0.00 95 1022.3
20260903102642 69 235 0.0 1.7 0.00 0.00 0.00 96 1022.3
20260903102142 69 155 0.0 0.9 0.00 0.00 0.00 95 1022.2
20260903101641 70 100 0.0 1.7 0.00 0.00 0.00 94 1022.2
20260903101137 71 221 0.9 1.7 0.00 0.00 0.00 93 1022.1
20260903100632 69 109 2.6 3.5 0.00 0.00 0.00 94 1022.1
20260903100131 69 193 0.0 1.7 0.00 0.00 0.00 95 1021.9
20260903095629 69 226 2.6 3.5 0.00 0.00 0.00 95 1022.1
20260903095128 69 196 0.0 0.9 0.00 0.00 0.00 95 1021.9
20260903094623 70 173 0.9 1.7 0.00 0.00 0.00 94 1022.1
20260903094119 71 221 2.6 3.5 0.00 0.00 0.00 93 1021.8
20260903093614 69 71 3.5 3.5 0.00 0.00 0.00 96 1021.8
20260903093109 69 244 1.7 2.6 0.00 0.00 0.00 96 1021.8
20260903092608 68 249 0.9 1.7 0.00 0.00 0.00 97 1021.7
20260903092103 68 333 0.0 1.7 0.00 0.00 0.00 97 1021.9
20260903091601 68 62 0.9 1.7 0.00 0.00 0.00 96 1021.8
20260903091056 69 58 0.9 0.9 0.00 0.00 0.00 96 1021.7
20260903090552 68 42 0.0 0.0 0.00 0.00 0.00 97 1021.6
20260903090050 67 61 1.7 1.7 0.00 0.00 0.00 97 1021.6
20260903085544 68 52 0.9 0.9 0.00 0.00 0.00 97 1021.7
20260903085040 68 49 0.9 1.7 0.00 0.00 0.00 97 1021.6
20260903084538 68 175 0.0 1.7 0.00 0.00 0.00 96 1021.3
20260903084032 68 237 0.0 1.7 0.00 0.00 0.00 97 1021.7
20260903083528 68 331 1.7 1.7 0.00 0.00 0.00 96 1021.5
20260903083028 68 74 2.6 2.6 0.00 0.00 0.00 96 1021.4
20260903082522 69 283 1.7 2.6 0.00 0.00 0.00 94 1021.4
20260903082018 68 69 1.7 2.6 0.00 0.00 0.00 96 1021.4
20260903081514 69 47 0.9 3.5 0.00 0.00 0.00 95 1021.4
20260903081009 67 100 0.0 0.0 0.00 0.00 0.00 97 1021.4
20260903080505 67 332 0.0 0.0 0.00 0.00 0.00 97 1021.5
20260903080001 67 102 0.0 0.0 0.00 0.00 0.00 97 1021.5
20260903075455 68 275 0.0 0.0 0.00 0.00 0.00 97 1021.5
20260903074945 67 108 0.9 1.7 0.00 0.00 0.00 98 1021.7
20260903074444 68 294 0.0 0.9 0.00 0.00 0.00 97 1021.6
20260903073939 67 97 1.7 2.6 0.00 0.00 0.00 97 1021.6
20260903073434 67 56 1.7 2.6 0.00 0.00 0.00 97 1021.6
20260903072930 67 118 0.0 0.0 0.00 0.00 0.00 97 1021.5
20260903072426 68 263 0.0 0.0 0.00 0.00 0.00 96 1021.4
20260903071923 68 235 0.0 0.9 0.00 0.00 0.00 96 1021.5
20260903071418 68 78 1.7 1.7 0.00 0.00 0.00 96 1021.5
20260903070914 69 250 0.0 2.6 0.00 0.00 0.00 95 1021.8
20260903070408 68 35 2.6 2.6 0.00 0.00 0.00 96 1021.5
20260903065903 68 147 1.7 2.6 0.00 0.00 0.00 96 1021.7
20260903065402 68 206 1.7 2.6 0.00 0.00 0.00 97 1021.7
20260903064856 68 199 0.0 0.9 0.00 0.00 0.00 97 1021.7
20260903064352 68 190 1.7 3.5 0.00 0.00 0.00 97 1021.9
20260903063848 67 225 1.7 2.6 0.00 0.00 0.00 98 1022.1
20260903063342 67 258 0.9 2.6 0.00 0.00 0.00 99 1021.9
20260903062833 67 224 0.0 0.9 0.00 0.00 0.00 99 1022.1
20260903062332 67 131 0.0 0.0 0.00 0.00 0.00 99 1022.1
20260903061828 67 193 0.9 1.7 0.00 0.00 0.00 99 1022.2
20260903061327 67 144 0.0 0.9 0.00 0.00 0.00 99 1022.3
20260903060824 67 206 0.9 0.9 0.00 0.00 0.00 98 1022.5
20260903060322 68 201 0.0 0.9 0.00 0.00 0.00 97 1022.4
20260903055821 68 180 0.0 0.0 0.00 0.00 0.00 96 1022.6
20260903055314 69 250 0.0 0.0 0.00 0.00 0.00 96 1022.3
20260903054809 69 117 0.9 3.5 0.00 0.00 0.00 95 1022.5
20260903054308 68 96 2.6 2.6 0.00 0.00 0.00 97 1022.4
20260903053805 68 74 0.0 0.0 0.00 0.00 0.00 98 1022.5
20260903053301 68 104 0.0 0.0 0.00 0.00 0.00 98 1022.2
20260903052755 68 51 0.0 0.0 0.00 0.00 0.00 98 1022.3
20260903052251 68 52 0.0 0.0 0.00 0.00 0.00 98 1022.3
20260903051746 68 80 0.0 0.0 0.00 0.00 0.00 98 1022.3
20260903051242 68 121 0.0 0.0 0.00 0.00 0.00 98 1022.2
20260903050737 68 85 0.9 1.7 0.00 0.00 0.00 98 1022.3
20260903050237 68 91 0.0 0.0 0.00 0.00 0.00 98 1022.2
20260903045732 68 68 0.0 0.0 0.00 0.00 0.00 98 1022.4
20260903045228 68 64 0.0 0.9 0.00 0.00 0.00 97 1022.3
20260903044723 69 99 0.0 0.0 0.00 0.00 0.00 97 1022.2
20260903044218 69 115 0.0 0.0 0.00 0.00 0.00 96 1022.4
20260903043715 69 123 0.0 0.0 0.00 0.00 0.00 96 1022.5
20260903043214 70 146 0.0 0.0 0.00 0.00 0.00 96 1022.4
20260903042714 70 147 0.0 0.0 0.00 0.00 0.00 95 1022.6
20260903042208 70 277 0.9 1.7 0.00 0.00 0.00 95 1022.5
20260903041705 69 122 0.0 0.0 0.00 0.00 0.00 96 1022.6
20260903041201 69 206 0.0 0.0 0.00 0.00 0.00 97 1022.5
20260903040700 69 71 0.0 0.0 0.00 0.00 0.00 97 1022.6
20260903040155 70 80 0.0 0.0 0.00 0.00 0.00 96 1022.4
20260903035651 70 89 0.0 0.0 0.00 0.00 0.00 96 1022.4
20260903035148 69 83 0.0 0.0 0.00 0.00 0.00 97 1022.4
20260903034647 69 51 0.0 0.0 0.00 0.00 0.00 97 1022.4
20260903034142 70 74 0.0 0.0 0.00 0.00 0.00 97 1022.5
20260903033638 70 292 0.0 0.0 0.00 0.00 0.00 96 1022.7
20260903033138 70 41 0.0 0.0 0.00 0.00 0.00 96 1022.7
20260903032633 70 80 0.0 0.0 0.00 0.00 0.00 96 1022.4
20260903032128 70 245 0.0 0.0 0.00 0.00 0.00 95 1022.3
20260903031624 71 89 0.0 0.0 0.00 0.00 0.00 94 1022.2
20260903031118 71 221 0.0 0.0 0.00 0.00 0.00 94 1022.5
20260903030614 72 236 0.0 0.0 0.00 0.00 0.00 93 1022.4
20260903030104 72 151 0.0 0.0 0.00 0.00 0.00 93 1022.4
20260903025559 72 210 0.0 0.9 0.00 0.00 0.00 92 1022.6
20260903025055 72 212 0.0 0.9 0.00 0.00 0.00 93 1022.6
20260903024555 72 214 0.0 1.7 0.00 0.00 0.00 93 1022.7
20260903024049 73 211 0.0 1.7 0.00 0.00 0.00 91 1022.5
20260903023545 73 159 0.9 2.6 0.00 0.00 0.00 91 1022.7
20260903023040 73 135 0.0 0.0 0.00 0.00 0.00 92 1022.8
20260903022539 73 269 0.0 0.0 0.00 0.00 0.00 92 1022.7
20260903022038 72 129 0.0 0.0 0.00 0.00 0.00 93 1022.4
20260903021533 73 238 0.0 0.0 0.00 0.00 0.00 92 1022.4
20260903021028 73 80 0.0 0.0 0.00 0.00 0.00 92 1022.5
20260903020524 74 304 0.0 0.0 0.00 0.00 0.00 90 1022.4
20260903020023 74 93 0.0 0.0 0.00 0.00 0.00 90 1022.5
20260903015519 73 144 0.0 0.0 0.00 0.00 0.00 91 1022.5
20260903015014 72 113 0.0 0.0 0.00 0.00 0.00 93 1022.6
20260903014513 73 83 0.0 0.0 0.00 0.00 0.00 92 1022.6
20260903014008 73 250 0.0 0.0 0.00 0.00 0.00 92 1022.6
20260903013503 73 89 0.0 0.0 0.00 0.00 0.00 92 1022.5
20260903013003 73 164 0.0 0.0 0.00 0.00 0.00 92 1022.4
20260903012501 73 59 0.0 0.0 0.00 0.00 0.00 91 1022.6
20260903012000 73 111 0.0 0.0 0.00 0.00 0.00 91 1022.7
20260903011455 73 127 0.0 0.0 0.00 0.00 0.00 93 1022.5
20260903010950 73 43 0.0 0.0 0.00 0.00 0.00 92 1022.5
20260903010445 74 118 0.0 0.0 0.00 0.00 0.00 91 1022.5
20260903005942 74 87 0.0 0.0 0.00 0.00 0.00 90 1022.8
20260903005433 74 86 0.0 0.0 0.00 0.00 0.00 89 1022.3
20260903004929 75 138 0.0 0.0 0.00 0.00 0.00 89 1022.4
20260903004423 75 216 0.0 0.0 0.00 0.00 0.00 88 1022.1
20260903003914 75 100 0.0 0.0 0.00 0.00 0.00 88 1022.1
20260903003414 75 126 0.0 0.0 0.00 0.00 0.00 88 1022.2
20260903002914 75 200 0.0 0.0 0.00 0.00 0.00 88 1022.2
20260903002409 75 121 0.0 0.0 0.00 0.00 0.00 89 1022.3
20260903001908 75 114 0.0 0.0 0.00 0.00 0.00 88 1022.1
20260903001403 76 87 0.0 0.9 0.00 0.00 0.00 88 1021.8
20260903000903 76 338 0.0 0.0 0.00 0.00 0.00 87 1021.9
20260903000358 76 161 0.0 0.0 0.00 0.00 0.00 87 1021.9
20260902235856 77 114 0.0 1.7 0.00 0.00 0.00 85 1021.8
20260902235352 77 119 0.0 0.0 0.00 0.00 0.00 87 1021.8
20260902234851 77 277 0.9 1.7 0.00 0.00 0.00 85 1021.7
20260902234351 77 114 0.9 1.7 0.00 0.00 0.00 86 1021.7
20260902233850 78 222 0.0 0.0 0.00 0.00 0.00 85 1021.9
20260902233344 78 123 0.0 0.0 0.00 0.00 0.00 84 1021.7
20260902232843 79 212 0.9 1.7 0.00 0.00 0.00 84 1021.9
20260902232338 79 107 0.9 1.7 0.00 0.00 0.00 81 1021.8
20260902231833 79 75 0.9 0.9 0.00 0.00 0.00 83 1021.8
20260902231328 80 208 0.0 1.7 0.00 0.00 0.00 79 1021.8
20260902230823 82 95 0.0 0.0 0.00 0.00 0.00 78 1021.8
20260902230322 82 219 0.0 0.9 0.00 0.00 0.00 76 1021.8
20260902225822 84 183 0.0 0.9 0.00 0.00 0.00 74 1021.7
20260902225317 87 272 0.9 1.7 0.00 0.00 0.00 62 1021.7
20260902224815 87 151 1.7 1.7 0.00 0.00 0.00 61 1021.8
20260902224310 86 152 1.7 2.6 0.00 0.00 0.00 61 1021.8
20260902223808 88 129 0.9 1.7 0.00 0.00 0.00 62 1021.9
20260902223307 88 59 1.7 5.2 0.00 0.00 0.00 58 1021.6
20260902222801 88 119 1.7 2.6 0.00 0.00 0.00 58 1021.5
20260902222300 88 84 2.6 3.5 0.00 0.00 0.00 58 1021.6
20260902221754 91 132 0.9 1.7 0.00 0.00 0.00 61 1021.6
20260902221254 90 280 0.9 2.6 0.00 0.00 0.00 57 1021.6
20260902220750 91 218 0.9 2.6 0.00 0.00 0.00 58 1021.5
20260902220249 92 183 0.9 0.9 0.00 0.00 0.00 56 1021.5
20260902215745 91 249 0.9 2.6 0.00 0.00 0.00 55 1021.5
20260902215240 91 244 0.9 1.7 0.00 0.00 0.00 54 1021.5
20260902214736 90 287 0.0 2.6 0.00 0.00 0.00 57 1021.4
20260902214234 92 247 1.7 2.6 0.00 0.00 0.00 52 1021.5
20260902213725 92 217 0.0 1.7 0.00 0.00 0.00 58 1021.4
20260902213224 91 67 0.0 1.7 0.00 0.00 0.00 56 1021.4
20260902212724 91 198 1.7 3.5 0.00 0.00 0.00 54 1021.6
20260902212220 92 244 2.6 6.1 0.00 0.00 0.00 55 1021.5
20260902211716 92 229 1.7 2.6 0.00 0.00 0.00 54 1021.6
20260902211211 91 179 1.7 2.6 0.00 0.00 0.00 58 1021.6
20260902210706 91 244 1.7 2.6 0.00 0.00 0.00 54 1021.4
20260902210202 91 206 2.6 3.5 0.00 0.00 0.00 57 1021.5
20260902205659 91 162 6.1 7.8 0.00 0.00 0.00 56 1021.7
20260902205154 91 196 2.6 6.1 0.00 0.00 0.00 58 1021.7
20260902204649 91 201 3.5 7.0 0.00 0.00 0.00 53 1021.7
20260902204144 91 212 1.7 6.1 0.00 0.00 0.00 53 1021.5
20260902203640 92 194 2.6 3.5 0.00 0.00 0.00 54 1021.5
20260902203139 91 229 0.9 2.6 0.00 0.00 0.00 54 1021.7
20260902202635 92 221 3.5 5.2 0.00 0.00 0.00 52 1021.6
20260902202131 92 172 1.7 3.5 0.00 0.00 0.00 56 1021.6
20260902201627 92 144 0.9 2.6 0.00 0.00 0.00 55 1021.5
20260902201121 92 173 6.1 7.0 0.00 0.00 0.00 52 1021.6
20260902200616 90 206 1.7 2.6 0.00 0.00 0.00 57 1021.6
20260902200112 89 187 0.0 1.7 0.00 0.00 0.00 59 1021.5
20260902195607 89 181 0.0 2.6 0.00 0.00 0.00 58 1021.5
20260902195106 90 178 1.7 2.6 0.00 0.00 0.00 56 1021.6
20260902194606 90 181 1.7 1.7 0.00 0.00 0.00 59 1021.7
20260902194101 91 255 1.7 2.6 0.00 0.00 0.00 54 1021.8
20260902193557 92 298 0.0 0.9 0.00 0.00 0.00 52 1021.7
20260902193056 90 76 1.7 1.7 0.00 0.00 0.00 60 1021.7
20260902192555 87 115 2.6 3.5 0.00 0.00 0.00 63 1021.8
20260902192054 88 112 2.6 3.5 0.00 0.00 0.00 63 1022.1
20260902191549 89 118 0.0 0.9 0.00 0.00 0.00 66 1021.8
20260902191043 90 250 0.0 1.7 0.00 0.00 0.00 52 1022.2
20260902190539 91 135 1.7 5.2 0.00 0.00 0.00 55 1021.8
20260902190034 92 227 2.6 6.1 0.00 0.00 0.00 52 1022.1
20260902185530 92 221 0.0 1.7 0.00 0.00 0.00 51 1022.3
20260902185026 91 137 1.7 3.5 0.00 0.00 0.00 53 1022.1
20260902184521 93 245 2.6 5.2 0.00 0.00 0.00 50 1022.1
20260902184016 92 166 0.0 0.9 0.00 0.00 0.00 50 1022.4
20260902183512 91 79 0.9 1.7 0.00 0.00 0.00 51 1022.3
20260902183009 92 222 2.6 2.6 0.00 0.00 0.00 56 1022.6
20260902182504 91 79 1.7 1.7 0.00 0.00 0.00 57 1022.6
20260902182000 90 125 0.0 1.7 0.00 0.00 0.00 57 1022.6
20260902181455 91 53 0.0 0.9 0.00 0.00 0.00 54 1022.6
20260902180950 91 179 0.0 1.7 0.00 0.00 0.00 56 1022.7
20260902180445 90 32 0.0 1.7 0.00 0.00 0.00 56 1022.7
20260902175941 89 337 1.7 2.6 0.00 0.00 0.00 55 1022.8
20260902175441 89 98 2.6 2.6 0.00 0.00 0.00 63 1022.9
20260902174937 92 101 0.0 1.7 0.00 0.00 0.00 55 1022.9
20260902174434 94 29 0.0 0.9 0.00 0.00 0.00 48 1022.8
20260902173929 94 195 0.0 1.7 0.00 0.00 0.00 51 1023.2
20260902173428 93 36 0.0 2.6 0.00 0.00 0.00 60 1023.0
20260902172924 92 54 2.6 2.6 0.00 0.00 0.00 53 1023.1
20260902172423 92 191 0.9 2.6 0.00 0.00 0.00 52 1023.1
20260902171918 91 162 1.7 1.7 0.00 0.00 0.00 51 1023.2
20260902171414 93 265 4.3 6.1 0.00 0.00 0.00 55 1023.3
20260902170910 92 4 0.0 0.9 0.00 0.00 0.00 54 1023.0
20260902170405 90 325 0.9 2.6 0.00 0.00 0.00 54 1023.3
20260902165900 92 12 0.0 2.6 0.00 0.00 0.00 55 1023.2
20260902165359 92 69 0.9 1.7 0.00 0.00 0.00 56 1023.1
20260902164854 91 111 0.0 2.6 0.00 0.00 0.00 54 1023.1
20260902164349 91 88 2.6 3.5 0.00 0.00 0.00 60 1023.5
20260902163848 90 100 0.0 1.7 0.00 0.00 0.00 56 1023.6
20260902163343 92 84 2.6 2.6 0.00 0.00 0.00 54 1023.5
20260902162842 92 246 0.0 1.7 0.00 0.00 0.00 54 1023.5
20260902162337 91 77 0.0 0.9 0.00 0.00 0.00 61 1023.5
20260902161836 91 143 0.0 0.9 0.00 0.00 0.00 54 1023.6
20260902161332 90 220 1.7 1.7 0.00 0.00 0.00 58 1023.5
20260902160828 89 87 1.7 2.6 0.00 0.00 0.00 58 1023.9
20260902160323 89 117 0.9 2.6 0.00 0.00 0.00 57 1023.7
20260902155821 90 107 0.0 0.0 0.00 0.00 0.00 67 1023.6
20260902155320 88 119 0.9 1.7 0.00 0.00 0.00 64 1023.6
20260902154815 88 67 0.9 2.6 0.00 0.00 0.00 62 1023.7
20260902154311 87 43 2.6 2.6 0.00 0.00 0.00 67 1023.7
20260902153809 87 95 1.7 2.6 0.00 0.00 0.00 73 1023.6
20260902153304 87 97 0.0 2.6 0.00 0.00 0.00 74 1023.6
20260902152800 86 111 0.0 0.0 0.00 0.00 0.00 69 1023.6
20260902152256 85 102 1.7 2.6 0.00 0.00 0.00 74 1024.0
20260902151756 87 69 0.9 1.7 0.00 0.00 0.00 69 1024.0
20260902151252 85 332 0.0 0.0 0.00 0.00 0.00 71 1023.7
20260902150752 85 112 1.7 2.6 0.00 0.00 0.00 74 1023.9
20260902150248 84 99 0.9 1.7 0.00 0.00 0.00 75 1024.1
20260902145747 83 106 1.7 2.6 0.00 0.00 0.00 81 1023.9
20260902145243 84 81 1.7 1.7 0.00 0.00 0.00 77 1024.0
20260902144738 83 95 0.0 1.7 0.00 0.00 0.00 77 1024.2
20260902144234 85 108 1.7 1.7 0.00 0.00 0.00 78 1024.1
20260902143728 83 81 0.0 0.9 0.00 0.00 0.00 77 1024.2
20260902143224 82 80 1.7 1.7 0.00 0.00 0.00 78 1024.3
20260902142719 81 111 0.9 0.9 0.00 0.00 0.00 83 1024.4
20260902142215 80 112 0.9 1.7 0.00 0.00 0.00 83 1024.2
20260902141715 80 53 1.7 1.7 0.00 0.00 0.00 82 1024.3
20260902141211 79 68 0.9 1.7 0.00 0.00 0.00 81 1024.0
20260902140706 80 54 0.9 1.7 0.00 0.00 0.00 83 1024.2
20260902140200 79 17 0.0 0.9 0.00 0.00 0.00 84 1024.0
20260902135659 77 189 0.0 0.0 0.00 0.00 0.00 86 1024.2
20260902135155 76 114 0.9 1.7 0.00 0.00 0.00 89 1024.2
20260902134650 76 179 0.9 0.9 0.00 0.00 0.00 89 1024.3
20260902134150 75 226 0.9 1.7 0.00 0.00 0.00 90 1024.2
20260902133645 75 183 0.0 0.9 0.00 0.00 0.00 88 1024.2
20260902133139 75 191 0.9 0.9 0.00 0.00 0.00 89 1024.1
20260902132635 76 185 1.7 2.6 0.00 0.00 0.00 87 1024.1
20260902132130 76 197 1.7 2.6 0.00 0.00 0.00 87 1024.1
20260902131626 75 121 0.0 1.7 0.00 0.00 0.00 86 1024.1
20260902131121 74 206 0.0 0.9 0.00 0.00 0.00 91 1024.3
20260902130617 74 228 0.9 1.7 0.00 0.00 0.00 89 1024.2
20260902130117 74 221 0.0 0.9 0.00 0.00 0.00 89 1024.2
20260902125613 74 139 0.9 1.7 0.00 0.00 0.00 89 1024.0
20260902125108 74 245 0.0 1.7 0.00 0.00 0.00 89 1023.9
20260902124605 73 256 0.9 2.6 0.00 0.00 0.00 91 1024.2
20260902124105 72 240 0.9 1.7 0.00 0.00 0.00 92 1024.3
20260902123600 72 195 0.0 0.9 0.00 0.00 0.00 94 1024.0
20260902123056 71 256 0.9 1.7 0.00 0.00 0.00 94 1024.1
20260902122555 71 183 1.7 6.1 0.00 0.00 0.00 94 1024.1